| time (UTC) | temp C | wind direction | speed KPH | gust KPH | rain 1hr cm | rain 24hr cm | rain mn cm | humidity % | barometer mb |
| 20260902202322 | 27 | 136 | 9.7 | 16.1 | 0.00 | 0.00 | 0.00 | 28 | 1022.0 |
| 20260902201822 | 27 | 203 | 3.2 | 6.4 | 0.00 | 0.00 | 0.00 | 28 | 1022.0 |
| 20260902201322 | 27 | 156 | 6.4 | 9.7 | 0.00 | 0.00 | 0.00 | 29 | 1022.0 |
| 20260902200823 | 27 | 245 | 3.2 | 4.8 | 0.00 | 0.00 | 0.00 | 28 | 1022.0 |
| 20260902200324 | 27 | 191 | 8.0 | 12.9 | 0.00 | 0.00 | 0.00 | 27 | 1022.0 |
| 20260902195823 | 27 | 221 | 4.8 | 8.0 | 0.00 | 0.00 | 0.00 | 28 | 1022.0 |
| 20260902195323 | 27 | 161 | 4.8 | 8.0 | 0.00 | 0.00 | 0.00 | 28 | 1022.0 |
| 20260902194822 | 27 | 203 | 6.4 | 8.0 | 0.00 | 0.00 | 0.00 | 28 | 1022.0 |
| 20260902194324 | 27 | 236 | 9.7 | 12.9 | 0.00 | 0.00 | 0.00 | 27 | 1022.0 |
| 20260902193824 | 27 | 247 | 6.4 | 14.5 | 0.00 | 0.00 | 0.00 | 27 | 1022.0 |
| 20260902193323 | 27 | 218 | 6.4 | 12.9 | 0.00 | 0.00 | 0.00 | 28 | 1022.0 |
| 20260902192823 | 26 | 169 | 6.4 | 9.7 | 0.00 | 0.00 | 0.00 | 27 | 1022.0 |
| 20260902192323 | 26 | 300 | 4.8 | 6.4 | 0.00 | 0.00 | 0.00 | 27 | 1022.0 |
| 20260902191822 | 27 | 290 | 11.3 | 17.7 | 0.00 | 0.00 | 0.00 | 28 | 1022.0 |
| 20260902191322 | 27 | 239 | 9.7 | 16.1 | 0.00 | 0.00 | 0.00 | 26 | 1023.0 |
| 20260902190823 | 27 | 210 | 6.4 | 11.3 | 0.00 | 0.00 | 0.00 | 27 | 1023.0 |
| 20260902190323 | 27 | 294 | 12.9 | 19.3 | 0.00 | 0.00 | 0.00 | 26 | 1023.0 |
| 20260902185823 | 27 | 286 | 9.7 | 14.5 | 0.00 | 0.00 | 0.00 | 27 | 1023.0 |
| 20260902185322 | 27 | 289 | 9.7 | 16.1 | 0.00 | 0.00 | 0.00 | 28 | 1023.0 |
| 20260902184822 | 26 | 249 | 6.4 | 12.9 | 0.00 | 0.00 | 0.00 | 27 | 1023.0 |
| 20260902184322 | 26 | 242 | 8.0 | 14.5 | 0.00 | 0.00 | 0.00 | 28 | 1023.0 |
| 20260902183822 | 26 | 256 | 6.4 | 11.3 | 0.00 | 0.00 | 0.00 | 28 | 1023.0 |
| 20260902183323 | 26 | 307 | 3.2 | 4.8 | 0.00 | 0.00 | 0.00 | 29 | 1023.0 |
| 20260902182822 | 26 | 198 | 9.7 | 14.5 | 0.00 | 0.00 | 0.00 | 28 | 1023.0 |
| 20260902182322 | 26 | 262 | 8.0 | 14.5 | 0.00 | 0.00 | 0.00 | 28 | 1023.0 |
| 20260902181822 | 26 | 281 | 11.3 | 16.1 | 0.00 | 0.00 | 0.00 | 29 | 1023.0 |
| 20260902181323 | 26 | 273 | 11.3 | 17.7 | 0.00 | 0.00 | 0.00 | 28 | 1023.0 |
| 20260902180822 | 26 | 262 | 11.3 | 16.1 | 0.00 | 0.00 | 0.00 | 28 | 1023.0 |
| 20260902180323 | 26 | 253 | 12.9 | 20.9 | 0.00 | 0.00 | 0.00 | 29 | 1024.0 |
| 20260902175822 | 26 | 285 | 12.9 | 17.7 | 0.00 | 0.00 | 0.00 | 29 | 1024.0 |
| 20260902175323 | 26 | 256 | 11.3 | 20.9 | 0.00 | 0.00 | 0.00 | 29 | 1024.0 |
| 20260902174822 | 26 | 272 | 9.7 | 16.1 | 0.00 | 0.00 | 0.00 | 30 | 1024.0 |
| 20260902174324 | 26 | 300 | 9.7 | 17.7 | 0.00 | 0.00 | 0.00 | 30 | 1024.0 |
| 20260902173822 | 26 | 273 | 8.0 | 11.3 | 0.00 | 0.00 | 0.00 | 30 | 1024.0 |
| 20260902173323 | 25 | 236 | 9.7 | 12.9 | 0.00 | 0.00 | 0.00 | 29 | 1024.0 |
| 20260902172822 | 25 | 295 | 8.0 | 12.9 | 0.00 | 0.00 | 0.00 | 30 | 1024.0 |
| 20260902172323 | 25 | 292 | 6.4 | 11.3 | 0.00 | 0.00 | 0.00 | 31 | 1024.0 |
| 20260902171822 | 25 | 243 | 4.8 | 11.3 | 0.00 | 0.00 | 0.00 | 30 | 1024.0 |
| 20260902171322 | 25 | 159 | 3.2 | 8.0 | 0.00 | 0.00 | 0.00 | 30 | 1024.0 |
| 20260902170822 | 25 | 253 | 6.4 | 9.7 | 0.00 | 0.00 | 0.00 | 30 | 1024.0 |
| 20260902170323 | 25 | 256 | 8.0 | 11.3 | 0.00 | 0.00 | 0.00 | 31 | 1024.0 |
| 20260902165822 | 25 | 261 | 11.3 | 17.7 | 0.00 | 0.00 | 0.00 | 31 | 1024.0 |
| 20260902165323 | 24 | 275 | 8.0 | 14.5 | 0.00 | 0.00 | 0.00 | 31 | 1024.0 |
| 20260902164822 | 24 | 269 | 8.0 | 11.3 | 0.00 | 0.00 | 0.00 | 31 | 1024.0 |
| 20260902163848 | 24 | 300 | 6.4 | 9.7 | 0.00 | 0.00 | 0.00 | 30 | 1024.0 |
| 20260902163323 | 24 | 286 | 12.9 | 24.1 | 0.00 | 0.00 | 0.00 | 31 | 1024.0 |
| 20260902162825 | 24 | 304 | 9.7 | 16.1 | 0.00 | 0.00 | 0.00 | 32 | 1024.0 |
| 20260902162322 | 24 | 291 | 6.4 | 11.3 | 0.00 | 0.00 | 0.00 | 32 | 1024.0 |
| 20260902161823 | 24 | 258 | 8.0 | 12.9 | 0.00 | 0.00 | 0.00 | 31 | 1024.0 |
| 20260902161322 | 24 | 276 | 6.4 | 8.0 | 0.00 | 0.00 | 0.00 | 31 | 1024.0 |
| 20260902160822 | 23 | 301 | 6.4 | 11.3 | 0.00 | 0.00 | 0.00 | 31 | 1024.0 |
| 20260902160324 | 23 | 231 | 9.7 | 11.3 | 0.00 | 0.00 | 0.00 | 31 | 1024.0 |
| 20260902155823 | 23 | 284 | 4.8 | 8.0 | 0.00 | 0.00 | 0.00 | 32 | 1024.0 |
| 20260902155323 | 23 | 296 | 9.7 | 20.9 | 0.00 | 0.00 | 0.00 | 32 | 1024.0 |
| 20260902154822 | 23 | 260 | 6.4 | 8.0 | 0.00 | 0.00 | 0.00 | 31 | 1024.0 |
| 20260902154323 | 23 | 275 | 4.8 | 6.4 | 0.00 | 0.00 | 0.00 | 32 | 1024.0 |
| 20260902153823 | 23 | 16 | 3.2 | 6.4 | 0.00 | 0.00 | 0.00 | 32 | 1024.0 |
| 20260902153323 | 23 | 270 | 3.2 | 6.4 | 0.00 | 0.00 | 0.00 | 33 | 1024.0 |
| 20260902152822 | 23 | 294 | 6.4 | 9.7 | 0.00 | 0.00 | 0.00 | 33 | 1024.0 |
| 20260902152322 | 22 | 287 | 6.4 | 11.3 | 0.00 | 0.00 | 0.00 | 32 | 1024.0 |
| 20260902151822 | 22 | 270 | 8.0 | 12.9 | 0.00 | 0.00 | 0.00 | 33 | 1024.0 |
| 20260902151322 | 22 | 286 | 9.7 | 14.5 | 0.00 | 0.00 | 0.00 | 33 | 1024.0 |
| 20260902150823 | 22 | 276 | 8.0 | 17.7 | 0.00 | 0.00 | 0.00 | 33 | 1024.0 |
| 20260902150323 | 22 | 294 | 8.0 | 11.3 | 0.00 | 0.00 | 0.00 | 33 | 1024.0 |
| 20260902145823 | 22 | 267 | 9.7 | 17.7 | 0.00 | 0.00 | 0.00 | 33 | 1024.0 |
| 20260902145323 | 22 | 310 | 9.7 | 14.5 | 0.00 | 0.00 | 0.00 | 32 | 1024.0 |
| 20260902144822 | 22 | 335 | 6.4 | 9.7 | 0.00 | 0.00 | 0.00 | 34 | 1024.0 |
| 20260902144322 | 22 | 295 | 9.7 | 14.5 | 0.00 | 0.00 | 0.00 | 32 | 1024.0 |
| 20260902143826 | 22 | 299 | 12.9 | 19.3 | 0.00 | 0.00 | 0.00 | 32 | 1024.0 |
| 20260902143328 | 22 | 257 | 4.8 | 8.0 | 0.00 | 0.00 | 0.00 | 35 | 1024.0 |
| 20260902142825 | 22 | 295 | 3.2 | 4.8 | 0.00 | 0.00 | 0.00 | 33 | 1024.0 |
| 20260902142322 | 21 | 355 | 1.6 | 3.2 | 0.00 | 0.00 | 0.00 | 34 | 1024.0 |
| 20260902141822 | 21 | 308 | 4.8 | 8.0 | 0.00 | 0.00 | 0.00 | 34 | 1024.0 |
| 20260902141322 | 21 | 321 | 4.8 | 8.0 | 0.00 | 0.00 | 0.00 | 36 | 1024.0 |
| 20260902140340 | 20 | 311 | 3.2 | 6.4 | 0.00 | 0.00 | 0.00 | 36 | 1024.0 |
| 20260902135822 | 20 | 356 | 4.8 | 8.0 | 0.00 | 0.00 | 0.00 | 35 | 1024.0 |
| 20260902135323 | 20 | 307 | 6.4 | 11.3 | 0.00 | 0.00 | 0.00 | 37 | 1024.0 |
| 20260902134823 | 20 | 349 | 8.0 | 12.9 | 0.00 | 0.00 | 0.00 | 37 | 1024.0 |
| 20260902134322 | 19 | 329 | 9.7 | 12.9 | 0.00 | 0.00 | 0.00 | 38 | 1024.0 |
| 20260902133823 | 19 | 308 | 14.5 | 19.3 | 0.00 | 0.00 | 0.00 | 39 | 1024.0 |
| 20260902133323 | 19 | 308 | 14.5 | 17.7 | 0.00 | 0.00 | 0.00 | 39 | 1024.0 |
| 20260902132822 | 18 | 319 | 11.3 | 16.1 | 0.00 | 0.00 | 0.00 | 40 | 1024.0 |
| 20260902132323 | 18 | 292 | 20.9 | 33.8 | 0.00 | 0.00 | 0.00 | 40 | 1023.0 |
| 20260902131822 | 18 | 282 | 12.9 | 19.3 | 0.00 | 0.00 | 0.00 | 40 | 1023.0 |
| 20260902131323 | 18 | 291 | 14.5 | 20.9 | 0.00 | 0.00 | 0.00 | 41 | 1023.0 |
| 20260902130823 | 18 | 284 | 12.9 | 17.7 | 0.00 | 0.00 | 0.00 | 41 | 1023.0 |
| 20260902130323 | 18 | 284 | 16.1 | 20.9 | 0.00 | 0.00 | 0.00 | 42 | 1023.0 |
| 20260902125823 | 17 | 299 | 14.5 | 20.9 | 0.00 | 0.00 | 0.00 | 42 | 1023.0 |
| 20260902125326 | 17 | 286 | 16.1 | 19.3 | 0.00 | 0.00 | 0.00 | 42 | 1023.0 |
| 20260902124822 | 17 | 286 | 17.7 | 22.5 | 0.00 | 0.00 | 0.00 | 42 | 1023.0 |
| 20260902124323 | 17 | 269 | 12.9 | 17.7 | 0.00 | 0.00 | 0.00 | 41 | 1023.0 |
| 20260902123823 | 17 | 284 | 16.1 | 20.9 | 0.00 | 0.00 | 0.00 | 42 | 1023.0 |
| 20260902123323 | 18 | 295 | 12.9 | 19.3 | 0.00 | 0.00 | 0.00 | 41 | 1023.0 |
| 20260902122822 | 17 | 283 | 12.9 | 22.5 | 0.00 | 0.00 | 0.00 | 42 | 1023.0 |
| 20260902122323 | 17 | 291 | 16.1 | 20.9 | 0.00 | 0.00 | 0.00 | 42 | 1023.0 |
| 20260902121823 | 17 | 289 | 20.9 | 29.0 | 0.00 | 0.00 | 0.00 | 42 | 1023.0 |
| 20260902121322 | 17 | 292 | 14.5 | 19.3 | 0.00 | 0.00 | 0.00 | 43 | 1023.0 |
| 20260902120823 | 17 | 296 | 16.1 | 19.3 | 0.00 | 0.00 | 0.00 | 43 | 1023.0 |
| 20260902120326 | 17 | 300 | 14.5 | 20.9 | 0.00 | 0.00 | 0.00 | 43 | 1023.0 |
| 20260902115823 | 17 | 293 | 11.3 | 16.1 | 0.00 | 0.00 | 0.00 | 43 | 1023.0 |
| 20260902115323 | 17 | 277 | 17.7 | 24.1 | 0.00 | 0.00 | 0.00 | 43 | 1023.0 |
| 20260902114822 | 17 | 303 | 14.5 | 19.3 | 0.00 | 0.00 | 0.00 | 44 | 1023.0 |
| 20260902114325 | 17 | 290 | 19.3 | 25.7 | 0.00 | 0.00 | 0.00 | 44 | 1023.0 |
| 20260902113822 | 17 | 285 | 12.9 | 17.7 | 0.00 | 0.00 | 0.00 | 44 | 1023.0 |
| 20260902113323 | 17 | 308 | 11.3 | 16.1 | 0.00 | 0.00 | 0.00 | 45 | 1023.0 |
| 20260902112823 | 17 | 299 | 14.5 | 19.3 | 0.00 | 0.00 | 0.00 | 46 | 1023.0 |
| 20260902112324 | 18 | 295 | 12.9 | 17.7 | 0.00 | 0.00 | 0.00 | 45 | 1023.0 |
| 20260902111822 | 18 | 294 | 6.4 | 11.3 | 0.00 | 0.00 | 0.00 | 46 | 1023.0 |
| 20260902111322 | 18 | 291 | 12.9 | 16.1 | 0.00 | 0.00 | 0.00 | 46 | 1023.0 |
| 20260902110823 | 18 | 306 | 8.0 | 11.3 | 0.00 | 0.00 | 0.00 | 46 | 1023.0 |
| 20260902110326 | 18 | 305 | 11.3 | 16.1 | 0.00 | 0.00 | 0.00 | 46 | 1023.0 |
| 20260902105823 | 18 | 312 | 8.0 | 12.9 | 0.00 | 0.00 | 0.00 | 44 | 1023.0 |
| 20260902105323 | 18 | 292 | 3.2 | 8.0 | 0.00 | 0.00 | 0.00 | 45 | 1023.0 |
| 20260902104822 | 18 | 314 | 4.8 | 8.0 | 0.00 | 0.00 | 0.00 | 44 | 1023.0 |
| 20260902104322 | 18 | 315 | 4.8 | 11.3 | 0.00 | 0.00 | 0.00 | 44 | 1023.0 |
| 20260902103822 | 18 | 336 | 6.4 | 9.7 | 0.00 | 0.00 | 0.00 | 43 | 1023.0 |
| 20260902103325 | 18 | 327 | 3.2 | 9.7 | 0.00 | 0.00 | 0.00 | 43 | 1023.0 |
| 20260902102823 | 18 | 330 | 6.4 | 11.3 | 0.00 | 0.00 | 0.00 | 44 | 1023.0 |
| 20260902102322 | 19 | 306 | 1.6 | 3.2 | 0.00 | 0.00 | 0.00 | 42 | 1023.0 |
| 20260902101823 | 18 | 324 | 8.0 | 14.5 | 0.00 | 0.00 | 0.00 | 43 | 1023.0 |
| 20260902101323 | 18 | 348 | 6.4 | 9.7 | 0.00 | 0.00 | 0.00 | 44 | 1023.0 |
| 20260902100822 | 18 | 329 | 6.4 | 11.3 | 0.00 | 0.00 | 0.00 | 43 | 1023.0 |
| 20260902100322 | 18 | 310 | 4.8 | 9.7 | 0.00 | 0.00 | 0.00 | 45 | 1023.0 |
| 20260902095825 | 17 | 339 | 4.8 | 11.3 | 0.00 | 0.00 | 0.00 | 50 | 1023.0 |
| 20260902095322 | 18 | 349 | 3.2 | 3.2 | 0.00 | 0.00 | 0.00 | 48 | 1023.0 |
| 20260902094823 | 18 | 318 | 3.2 | 6.4 | 0.00 | 0.00 | 0.00 | 46 | 1023.0 |
| 20260902094323 | 18 | 190 | 4.8 | 6.4 | 0.00 | 0.00 | 0.00 | 45 | 1023.0 |
| 20260902093823 | 17 | 314 | 0.0 | 3.2 | 0.00 | 0.00 | 0.00 | 49 | 1023.0 |
| 20260902093322 | 17 | 289 | 4.8 | 6.4 | 0.00 | 0.00 | 0.00 | 50 | 1023.0 |
| 20260902092823 | 17 | 267 | 1.6 | 6.4 | 0.00 | 0.00 | 0.00 | 49 | 1023.0 |
| 20260902092324 | 16 | 5 | 4.8 | 8.0 | 0.00 | 0.00 | 0.00 | 51 | 1023.0 |
| 20260902091824 | 16 | 355 | 3.2 | 6.4 | 0.00 | 0.00 | 0.00 | 57 | 1023.0 |
| 20260902091323 | 16 | 316 | 3.2 | 4.8 | 0.00 | 0.00 | 0.00 | 61 | 1023.0 |
| 20260902090823 | 15 | 340 | 6.4 | 11.3 | 0.00 | 0.00 | 0.00 | 56 | 1023.0 |
| 20260902090322 | 16 | 9 | 3.2 | 4.8 | 0.00 | 0.00 | 0.00 | 67 | 1023.0 |
| 20260902085822 | 15 | 346 | 1.6 | 3.2 | 0.00 | 0.00 | 0.00 | 65 | 1023.0 |
| 20260902085323 | 15 | 5 | 3.2 | 4.8 | 0.00 | 0.00 | 0.00 | 69 | 1023.0 |
| 20260902084822 | 15 | 5 | 3.2 | 6.4 | 0.00 | 0.00 | 0.00 | 68 | 1023.0 |
| 20260902084324 | 14 | 359 | 3.2 | 8.0 | 0.00 | 0.00 | 0.00 | 69 | 1023.0 |
| 20260902083822 | 14 | 11 | 1.6 | 3.2 | 0.00 | 0.00 | 0.00 | 75 | 1023.0 |
| 20260902083322 | 14 | 323 | 3.2 | 4.8 | 0.00 | 0.00 | 0.00 | 75 | 1023.0 |
| 20260902082822 | 14 | 293 | 3.2 | 4.8 | 0.00 | 0.00 | 0.00 | 75 | 1023.0 |
| 20260902082322 | 14 | 355 | 1.6 | 4.8 | 0.00 | 0.00 | 0.00 | 75 | 1023.0 |
| 20260902081822 | 13 | 351 | 1.6 | 3.2 | 0.00 | 0.00 | 0.00 | 76 | 1023.0 |
| 20260902081323 | 13 | 357 | 3.2 | 4.8 | 0.00 | 0.00 | 0.00 | 75 | 1023.0 |
| 20260902080823 | 13 | 346 | 4.8 | 8.0 | 0.00 | 0.00 | 0.00 | 75 | 1023.0 |
| 20260902080322 | 13 | 19 | 3.2 | 6.4 | 0.00 | 0.00 | 0.00 | 75 | 1023.0 |
| 20260902075824 | 14 | 342 | 3.2 | 6.4 | 0.00 | 0.00 | 0.00 | 74 | 1024.0 |
| 20260902075323 | 13 | 340 | 4.8 | 6.4 | 0.00 | 0.00 | 0.00 | 74 | 1024.0 |
| 20260902074822 | 13 | 342 | 4.8 | 8.0 | 0.00 | 0.00 | 0.00 | 75 | 1024.0 |
| 20260902074322 | 13 | 351 | 3.2 | 6.4 | 0.00 | 0.00 | 0.00 | 76 | 1024.0 |
| 20260902073823 | 13 | 3 | 1.6 | 3.2 | 0.00 | 0.00 | 0.00 | 78 | 1024.0 |
| 20260902073323 | 13 | 18 | 1.6 | 4.8 | 0.00 | 0.00 | 0.00 | 77 | 1024.0 |
| 20260902072823 | 13 | 358 | 6.4 | 8.0 | 0.00 | 0.00 | 0.00 | 75 | 1024.0 |
| 20260902072322 | 13 | 354 | 6.4 | 9.7 | 0.00 | 0.00 | 0.00 | 75 | 1024.0 |
| 20260902071822 | 13 | 344 | 1.6 | 4.8 | 0.00 | 0.00 | 0.00 | 76 | 1024.0 |
| 20260902071322 | 14 | 12 | 3.2 | 6.4 | 0.00 | 0.00 | 0.00 | 74 | 1024.0 |
| 20260902070823 | 14 | 360 | 0.0 | 0.0 | 0.00 | 0.00 | 0.00 | 74 | 1023.0 |
| 20260902070323 | 14 | 360 | 0.0 | 0.0 | 0.00 | 0.00 | 0.00 | 74 | 1024.0 |
| 20260902065822 | 14 | 289 | 1.6 | 3.2 | 0.00 | 0.00 | 0.00 | 74 | 1024.0 |
| 20260902065322 | 14 | 288 | 4.8 | 6.4 | 0.00 | 0.00 | 0.00 | 76 | 1024.0 |
| 20260902064823 | 15 | 132 | 3.2 | 4.8 | 0.00 | 0.00 | 0.00 | 73 | 1024.0 |
| 20260902064322 | 15 | 289 | 1.6 | 3.2 | 0.00 | 0.00 | 0.00 | 71 | 1024.0 |
| 20260902063824 | 15 | 46 | 1.6 | 3.2 | 0.00 | 0.00 | 0.00 | 70 | 1023.0 |
| 20260902063323 | 15 | 21 | 1.6 | 3.2 | 0.00 | 0.00 | 0.00 | 70 | 1023.0 |
| 20260902062823 | 15 | 322 | 0.0 | 1.6 | 0.00 | 0.00 | 0.00 | 70 | 1023.0 |
| 20260902062322 | 16 | 41 | 0.0 | 3.2 | 0.00 | 0.00 | 0.00 | 69 | 1023.0 |
| 20260902061822 | 16 | 21 | 1.6 | 3.2 | 0.00 | 0.00 | 0.00 | 69 | 1023.0 |
| 20260902061324 | 16 | 1 | 3.2 | 9.7 | 0.00 | 0.00 | 0.00 | 69 | 1023.0 |
| 20260902060822 | 16 | 322 | 3.2 | 3.2 | 0.00 | 0.00 | 0.00 | 70 | 1023.0 |
| 20260902060323 | 16 | 319 | 1.6 | 3.2 | 0.00 | 0.00 | 0.00 | 70 | 1023.0 |
| 20260902055823 | 16 | 258 | 1.6 | 3.2 | 0.00 | 0.00 | 0.00 | 69 | 1024.0 |
| 20260902055322 | 16 | 359 | 1.6 | 3.2 | 0.00 | 0.00 | 0.00 | 68 | 1024.0 |
| 20260902054824 | 16 | 348 | 3.2 | 4.8 | 0.00 | 0.00 | 0.00 | 69 | 1024.0 |
| 20260902054323 | 16 | 348 | 1.6 | 3.2 | 0.00 | 0.00 | 0.00 | 69 | 1024.0 |
| 20260902053823 | 16 | 322 | 1.6 | 3.2 | 0.00 | 0.00 | 0.00 | 68 | 1024.0 |
| 20260902053323 | 16 | 295 | 3.2 | 3.2 | 0.00 | 0.00 | 0.00 | 70 | 1024.0 |
| 20260902052823 | 16 | 334 | 1.6 | 3.2 | 0.00 | 0.00 | 0.00 | 72 | 1024.0 |
| 20260902052324 | 16 | 300 | 3.2 | 3.2 | 0.00 | 0.00 | 0.00 | 71 | 1024.0 |
| 20260902051822 | 16 | 287 | 4.8 | 8.0 | 0.00 | 0.00 | 0.00 | 71 | 1024.0 |
| 20260902051324 | 16 | 288 | 6.4 | 9.7 | 0.00 | 0.00 | 0.00 | 68 | 1024.0 |
| 20260902050822 | 17 | 293 | 6.4 | 8.0 | 0.00 | 0.00 | 0.00 | 68 | 1024.0 |
| 20260902050324 | 17 | 290 | 8.0 | 11.3 | 0.00 | 0.00 | 0.00 | 66 | 1024.0 |
| 20260902045822 | 17 | 290 | 0.0 | 3.2 | 0.00 | 0.00 | 0.00 | 63 | 1024.0 |
| 20260902045323 | 18 | 222 | 0.0 | 1.6 | 0.00 | 0.00 | 0.00 | 63 | 1024.0 |
| 20260902044824 | 18 | 201 | 1.6 | 3.2 | 0.00 | 0.00 | 0.00 | 62 | 1024.0 |
| 20260902044322 | 18 | 209 | 0.0 | 3.2 | 0.00 | 0.00 | 0.00 | 62 | 1024.0 |
| 20260902043822 | 18 | 201 | 1.6 | 3.2 | 0.00 | 0.00 | 0.00 | 61 | 1024.0 |
| 20260902043323 | 18 | 182 | 1.6 | 3.2 | 0.00 | 0.00 | 0.00 | 61 | 1024.0 |
| 20260902042822 | 18 | 186 | 3.2 | 4.8 | 0.00 | 0.00 | 0.00 | 61 | 1024.0 |
| 20260902042323 | 18 | 159 | 3.2 | 6.4 | 0.00 | 0.00 | 0.00 | 60 | 1024.0 |
| 20260902041824 | 18 | 165 | 3.2 | 4.8 | 0.00 | 0.00 | 0.00 | 59 | 1024.0 |
| 20260902041324 | 18 | 165 | 1.6 | 3.2 | 0.00 | 0.00 | 0.00 | 59 | 1024.0 |
| 20260902040822 | 19 | 171 | 3.2 | 4.8 | 0.00 | 0.00 | 0.00 | 58 | 1024.0 |
| 20260902040323 | 19 | 170 | 1.6 | 3.2 | 0.00 | 0.00 | 0.00 | 57 | 1024.0 |
| 20260902035823 | 19 | 135 | 3.2 | 6.4 | 0.00 | 0.00 | 0.00 | 57 | 1024.0 |
| 20260902035323 | 19 | 155 | 3.2 | 6.4 | 0.00 | 0.00 | 0.00 | 56 | 1024.0 |
| 20260902034823 | 19 | 144 | 4.8 | 8.0 | 0.00 | 0.00 | 0.00 | 55 | 1024.0 |
| 20260902034322 | 19 | 164 | 6.4 | 9.7 | 0.00 | 0.00 | 0.00 | 55 | 1024.0 |
| 20260902033822 | 19 | 154 | 4.8 | 6.4 | 0.00 | 0.00 | 0.00 | 55 | 1024.0 |
| 20260902033322 | 19 | 174 | 4.8 | 8.0 | 0.00 | 0.00 | 0.00 | 55 | 1024.0 |
| 20260902032823 | 19 | 178 | 4.8 | 8.0 | 0.00 | 0.00 | 0.00 | 54 | 1024.0 |
| 20260902032323 | 19 | 179 | 3.2 | 4.8 | 0.00 | 0.00 | 0.00 | 55 | 1024.0 |
| 20260902031823 | 19 | 191 | 4.8 | 6.4 | 0.00 | 0.00 | 0.00 | 55 | 1024.0 |
| 20260902031322 | 19 | 209 | 3.2 | 4.8 | 0.00 | 0.00 | 0.00 | 55 | 1024.0 |
| 20260902030822 | 20 | 222 | 4.8 | 8.0 | 0.00 | 0.00 | 0.00 | 55 | 1024.0 |
| 20260902030322 | 20 | 219 | 6.4 | 9.7 | 0.00 | 0.00 | 0.00 | 54 | 1024.0 |
| 20260902025824 | 20 | 183 | 8.0 | 9.7 | 0.00 | 0.00 | 0.00 | 53 | 1024.0 |
| 20260902025324 | 20 | 178 | 8.0 | 12.9 | 0.00 | 0.00 | 0.00 | 53 | 1024.0 |
| 20260902024822 | 20 | 184 | 6.4 | 8.0 | 0.00 | 0.00 | 0.00 | 54 | 1023.0 |
| 20260902024322 | 20 | 195 | 4.8 | 8.0 | 0.00 | 0.00 | 0.00 | 55 | 1023.0 |
| 20260902023823 | 20 | 196 | 4.8 | 6.4 | 0.00 | 0.00 | 0.00 | 55 | 1023.0 |
| 20260902023324 | 20 | 190 | 3.2 | 4.8 | 0.00 | 0.00 | 0.00 | 54 | 1023.0 |
| 20260902022824 | 20 | 184 | 4.8 | 6.4 | 0.00 | 0.00 | 0.00 | 53 | 1023.0 |
| 20260902022323 | 20 | 179 | 6.4 | 9.7 | 0.00 | 0.00 | 0.00 | 52 | 1023.0 |
| 20260902021822 | 21 | 164 | 6.4 | 9.7 | 0.00 | 0.00 | 0.00 | 52 | 1023.0 |
| 20260902021322 | 21 | 162 | 8.0 | 9.7 | 0.00 | 0.00 | 0.00 | 52 | 1023.0 |
| 20260902020823 | 21 | 153 | 8.0 | 11.3 | 0.00 | 0.00 | 0.00 | 51 | 1023.0 |
| 20260902020324 | 21 | 158 | 9.7 | 12.9 | 0.00 | 0.00 | 0.00 | 50 | 1023.0 |
| 20260902015822 | 21 | 162 | 9.7 | 14.5 | 0.00 | 0.00 | 0.00 | 51 | 1023.0 |
| 20260902015322 | 21 | 175 | 8.0 | 11.3 | 0.00 | 0.00 | 0.00 | 51 | 1023.0 |
| 20260902014823 | 22 | 171 | 9.7 | 12.9 | 0.00 | 0.00 | 0.00 | 50 | 1022.0 |
| 20260902014322 | 22 | 178 | 11.3 | 14.5 | 0.00 | 0.00 | 0.00 | 49 | 1022.0 |
| 20260902013822 | 22 | 168 | 11.3 | 14.5 | 0.00 | 0.00 | 0.00 | 48 | 1022.0 |
| 20260902013322 | 22 | 166 | 14.5 | 17.7 | 0.00 | 0.00 | 0.00 | 47 | 1022.0 |
| 20260902012822 | 22 | 164 | 11.3 | 14.5 | 0.00 | 0.00 | 0.00 | 45 | 1022.0 |
| 20260902012322 | 23 | 174 | 12.9 | 17.7 | 0.00 | 0.00 | 0.00 | 44 | 1022.0 |
| 20260902011822 | 23 | 189 | 6.4 | 12.9 | 0.00 | 0.00 | 0.00 | 41 | 1022.0 |
| 20260902011322 | 23 | 180 | 6.4 | 11.3 | 0.00 | 0.00 | 0.00 | 41 | 1022.0 |
| 20260902010822 | 23 | 191 | 4.8 | 6.4 | 0.00 | 0.00 | 0.00 | 40 | 1022.0 |
| 20260902010323 | 23 | 179 | 8.0 | 11.3 | 0.00 | 0.00 | 0.00 | 40 | 1022.0 |
| 20260902005822 | 23 | 176 | 9.7 | 12.9 | 0.00 | 0.00 | 0.00 | 39 | 1022.0 |
| 20260902005323 | 23 | 177 | 9.7 | 14.5 | 0.00 | 0.00 | 0.00 | 39 | 1022.0 |
| 20260902004821 | 24 | 170 | 12.9 | 17.7 | 0.00 | 0.00 | 0.00 | 38 | 1022.0 |
| 20260902004322 | 24 | 189 | 6.4 | 8.0 | 0.00 | 0.00 | 0.00 | 39 | 1022.0 |
| 20260902003822 | 24 | 166 | 9.7 | 12.9 | 0.00 | 0.00 | 0.00 | 38 | 1022.0 |
| 20260902003323 | 24 | 175 | 9.7 | 12.9 | 0.00 | 0.00 | 0.00 | 37 | 1022.0 |
| 20260902002822 | 25 | 160 | 9.7 | 14.5 | 0.00 | 0.00 | 0.00 | 36 | 1022.0 |
| 20260902002324 | 25 | 174 | 11.3 | 14.5 | 0.00 | 0.00 | 0.00 | 35 | 1022.0 |
| 20260902001824 | 25 | 174 | 9.7 | 14.5 | 0.00 | 0.00 | 0.00 | 34 | 1022.0 |
| 20260902001322 | 25 | 171 | 12.9 | 16.1 | 0.00 | 0.00 | 0.00 | 31 | 1022.0 |
| 20260902000823 | 26 | 170 | 8.0 | 11.3 | 0.00 | 0.00 | 0.00 | 29 | 1022.0 |
| 20260902000323 | 26 | 183 | 8.0 | 11.3 | 0.00 | 0.00 | 0.00 | 29 | 1022.0 |
| 20260901235822 | 26 | 170 | 8.0 | 11.3 | 0.00 | 0.00 | 0.00 | 29 | 1022.0 |
| 20260901235324 | 26 | 165 | 8.0 | 11.3 | 0.00 | 0.00 | 0.00 | 30 | 1022.0 |
| 20260901234822 | 26 | 156 | 8.0 | 12.9 | 0.00 | 0.00 | 0.00 | 30 | 1022.0 |
| 20260901234323 | 26 | 147 | 9.7 | 11.3 | 0.00 | 0.00 | 0.00 | 30 | 1022.0 |
| 20260901233822 | 26 | 157 | 9.7 | 12.9 | 0.00 | 0.00 | 0.00 | 29 | 1022.0 |
| 20260901233323 | 26 | 149 | 6.4 | 9.7 | 0.00 | 0.00 | 0.00 | 30 | 1022.0 |
| 20260901232822 | 26 | 175 | 8.0 | 11.3 | 0.00 | 0.00 | 0.00 | 29 | 1022.0 |
| 20260901232322 | 26 | 154 | 6.4 | 8.0 | 0.00 | 0.00 | 0.00 | 29 | 1022.0 |
| 20260901231823 | 26 | 144 | 6.4 | 9.7 | 0.00 | 0.00 | 0.00 | 29 | 1022.0 |
| 20260901231323 | 26 | 151 | 9.7 | 12.9 | 0.00 | 0.00 | 0.00 | 29 | 1022.0 |
| 20260901230822 | 26 | 198 | 4.8 | 6.4 | 0.00 | 0.00 | 0.00 | 29 | 1022.0 |
| 20260901230322 | 26 | 159 | 9.7 | 14.5 | 0.00 | 0.00 | 0.00 | 29 | 1022.0 |
| 20260901225822 | 27 | 142 | 11.3 | 14.5 | 0.00 | 0.00 | 0.00 | 29 | 1022.0 |
| 20260901225322 | 27 | 149 | 9.7 | 14.5 | 0.00 | 0.00 | 0.00 | 29 | 1022.0 |
| 20260901224823 | 27 | 161 | 12.9 | 16.1 | 0.00 | 0.00 | 0.00 | 29 | 1022.0 |
| 20260901224322 | 27 | 166 | 11.3 | 14.5 | 0.00 | 0.00 | 0.00 | 28 | 1022.0 |
| 20260901223822 | 27 | 132 | 8.0 | 11.3 | 0.00 | 0.00 | 0.00 | 29 | 1022.0 |
| 20260901223322 | 27 | 210 | 8.0 | 9.7 | 0.00 | 0.00 | 0.00 | 28 | 1022.0 |
| 20260901222822 | 27 | 148 | 4.8 | 8.0 | 0.00 | 0.00 | 0.00 | 29 | 1022.0 |
| 20260901222323 | 27 | 160 | 9.7 | 14.5 | 0.00 | 0.00 | 0.00 | 29 | 1022.0 |
| 20260901221822 | 27 | 166 | 8.0 | 11.3 | 0.00 | 0.00 | 0.00 | 29 | 1022.0 |
| 20260901221322 | 27 | 246 | 11.3 | 16.1 | 0.00 | 0.00 | 0.00 | 27 | 1022.0 |
| 20260901220822 | 27 | 313 | 8.0 | 12.9 | 0.00 | 0.00 | 0.00 | 26 | 1022.0 |
| 20260901220323 | 27 | 306 | 9.7 | 11.3 | 0.00 | 0.00 | 0.00 | 26 | 1022.0 |
| 20260901215825 | 27 | 278 | 9.7 | 14.5 | 0.00 | 0.00 | 0.00 | 27 | 1022.0 |
| 20260901215322 | 27 | 192 | 8.0 | 9.7 | 0.00 | 0.00 | 0.00 | 29 | 1023.0 |
| 20260901214822 | 27 | 193 | 6.4 | 9.7 | 0.00 | 0.00 | 0.00 | 33 | 1022.0 |
| 20260901214322 | 27 | 172 | 9.7 | 14.5 | 0.00 | 0.00 | 0.00 | 31 | 1022.0 |
| 20260901213823 | 27 | 188 | 8.0 | 12.9 | 0.00 | 0.00 | 0.00 | 30 | 1023.0 |
| 20260901213323 | 27 | 194 | 8.0 | 9.7 | 0.00 | 0.00 | 0.00 | 31 | 1023.0 |
| 20260901212822 | 27 | 117 | 6.4 | 9.7 | 0.00 | 0.00 | 0.00 | 31 | 1023.0 |
| 20260901212323 | 27 | 143 | 6.4 | 9.7 | 0.00 | 0.00 | 0.00 | 31 | 1023.0 |
| 20260901211822 | 27 | 163 | 11.3 | 14.5 | 0.00 | 0.00 | 0.00 | 32 | 1023.0 |
| 20260901211322 | 26 | 154 | 14.5 | 17.7 | 0.00 | 0.00 | 0.00 | 32 | 1023.0 |
| 20260901210822 | 27 | 163 | 11.3 | 14.5 | 0.00 | 0.00 | 0.00 | 30 | 1023.0 |
| 20260901210323 | 27 | 208 | 6.4 | 9.7 | 0.00 | 0.00 | 0.00 | 27 | 1023.0 |
| 20260901205825 | 27 | 337 | 4.8 | 8.0 | 0.00 | 0.00 | 0.00 | 30 | 1023.0 |
| 20260901205323 | 27 | 155 | 4.8 | 8.0 | 0.00 | 0.00 | 0.00 | 31 | 1023.0 |
| 20260901204822 | 26 | 174 | 8.0 | 12.9 | 0.00 | 0.00 | 0.00 | 31 | 1023.0 |
| 20260901204323 | 26 | 263 | 6.4 | 12.9 | 0.00 | 0.00 | 0.00 | 26 | 1023.0 |
| 20260901203822 | 26 | 236 | 24.1 | 32.2 | 0.00 | 0.00 | 0.00 | 31 | 1023.0 |
| 20260901203323 | 26 | 172 | 12.9 | 19.3 | 0.00 | 0.00 | 0.00 | 29 | 1023.0 |
| 20260901202826 | 27 | 140 | 6.4 | 9.7 | 0.00 | 0.00 | 0.00 | 30 | 1023.0 |